Date,TemperatureHighF,TemperatureAvgF,TemperatureLowF,DewpointHighF,DewpointAvgF,DewpointLowF,HumidityHigh,HumidityAvg,HumidityLow,PressureMaxIn,PressureMinIn,WindSpeedMaxMPH,WindSpeedAvgMPH,GustSpeedMaxMPH,PrecipitationSumIn
2013-3-1,29,22,11,18,14,5,80,70,55,29.96,29.79,16,4,16,0.00
2013-3-2,32,17,5,15,5,-3,77,60,41,29.97,29.77,11,2,12,0.05
2013-3-3,35,16,2,13,4,-6,75,58,37,29.90,29.65,6,1,6,0.00
2013-3-4,37,25,10,23,14,1,76,65,52,29.83,29.60,11,2,11,0.00
2013-3-5,32,29,25,28,24,21,88,83,76,29.76,29.50,122,2,122,0.01
2013-3-6,35,29,24,25,22,18,83,75,66,29.93,29.64,11,4,13,0.07
2013-3-7,42,24,9,25,14,2,83,67,46,29.94,29.77,6,1,6,0.06
2013-3-8,46,27,10,30,19,3,83,71,51,29.99,29.76,8,1,8,0.00
2013-3-9,43,36,23,35,30,19,94,80,67,29.93,29.50,11,4,12,0.40
2013-3-10,42,38,35,42,37,34,99,98,94,29.55,29.30,10,2,11,0.72
2013-3-11,35,33,31,34,31,26,98,93,81,29.51,29.29,8,2,8,0.04
2013-3-12,36,29,26,26,22,16,87,75,60,29.76,29.51,13,2,13,0.01
2013-3-13,35,26,20,18,10,3,72,53,26,30.07,29.76,12,4,12,0.01
2013-3-14,41,27,14,28,18,6,86,68,54,30.08,29.79,8,1,8,0.00
2013-3-15,37,32,25,32,28,21,94,85,78,29.80,29.52,11,1,11,0.17
2013-3-16,33,28,22,26,20,15,85,73,61,29.86,29.53,13,4,14,0.00
2013-3-17,39,26,17,22,13,3,68,56,44,30.03,29.73,11,4,11,0.00
2013-3-18,40,27,18,34,21,8,86,76,62,29.72,29.29,14,2,14,0.09
2013-3-19,36,22,12,13,7,3,65,53,32,29.79,29.44,13,5,13,0.08
2013-3-20,26,16,9,6,0,-8,52,47,37,29.93,29.79,14,5,14,0.00
2013-3-21,34,19,8,13,4,-5,64,51,39,29.93,29.76,10,2,10,0.00
2013-3-22,39,23,10,19,10,1,74,57,34,29.93,29.84,8,1,8,0.00
2013-3-23,42,29,17,22,16,10,79,61,41,30.00,29.81,8,1,8,0.00
2013-3-24,34,31,29,28,24,19,86,75,66,29.88,29.56,21,5,21,0.01
2013-3-25,36,32,26,24,21,16,71,64,56,29.92,29.65,16,6,18,0.00
2013-3-26,44,36,30,28,24,22,72,62,53,30.09,29.92,11,3,11,0.00
2013-3-27,45,36,26,28,22,17,69,56,39,30.19,30.03,8,2,8,0.00
2013-3-28,49,34,22,26,20,16,81,58,31,30.22,30.03,6,1,6,0.00
2013-3-29,52,37,23,29,22,17,86,56,26,30.19,29.99,6,1,6,0.00
2013-3-30,54,43,33,41,32,23,90,66,55,30.04,29.65,5,1,5,0.01
2013-3-31,49,40,33,41,33,20,94,76,57,29.74,29.52,14,3,14,0.00